FW8685 Weather Reports


Display with metric or nautical units.
time (UTC)temp
F
wind
direction
speed
MPH
gust
MPH
rain 1hr
in
rain 24hr
in
rain mn
in
humidity
%
barometer
mb
20260906154028 95 216 4.0 9.0 0.00 0.00 0.00 45 1013.4
20260906153528 94 160 5.0 9.0 0.00 0.00 0.00 46 1013.5
20260906153049 94 181 3.0 7.0 0.00 0.00 0.00 45 1013.4
20260906152524 93 160 1.0 7.0 0.00 0.00 0.00 47 1013.4
20260906152027 93 157 1.0 5.0 0.00 0.00 0.00 47 1013.5
20260906151546 92 174 1.0 5.0 0.00 0.00 0.00 49 1013.3
20260906151031 92 0 2.0 5.0 0.00 0.00 0.00 50 1013.4
20260906150524 92 132 1.0 4.0 0.00 0.00 0.00 50 1013.3
20260906150045 91 182 1.0 4.0 0.00 0.00 0.00 51 1013.3
20260906145524 91 0 1.0 4.0 0.00 0.00 0.00 51 1013.3
20260906145025 91 118 1.0 6.0 0.00 0.00 0.00 52 1013.3
20260906144548 90 129 2.0 6.0 0.00 0.00 0.00 51 1013.3
20260906144024 90 167 3.0 6.0 0.00 0.00 0.00 54 1013.3
20260906143524 89 0 0.0 3.0 0.00 0.00 0.00 54 1013.2
20260906143049 88 98 2.0 4.0 0.00 0.00 0.00 55 1013.2
20260906142525 87 142 1.0 4.0 0.00 0.00 0.00 57 1013.3
20260906142027 86 0 0.0 2.0 0.00 0.00 0.00 58 1013.2
20260906141544 85 0 0.0 3.0 0.00 0.00 0.00 59 1013.3
20260906141024 85 0 0.0 3.0 0.00 0.00 0.00 59 1013.3
20260906140526 84 87 1.0 4.0 0.00 0.00 0.00 60 1013.4
20260906140049 83 81 2.0 4.0 0.00 0.00 0.00 62 1013.3
20260906135524 83 105 2.0 4.0 0.00 0.00 0.00 63 1013.2
20260906135023 82 97 1.0 4.0 0.00 0.00 0.00 64 1013.1
20260906134543 81 0 1.0 5.0 0.00 0.00 0.00 66 1013.0
20260906134023 80 68 2.0 5.0 0.00 0.00 0.00 67 1013.1
20260906133525 80 69 3.0 5.0 0.00 0.00 0.00 69 1013.1
20260906133052 79 61 3.0 6.0 0.00 0.00 0.00 70 1013.0
20260906132524 78 55 3.0 6.0 0.00 0.00 0.00 72 1012.9
20260906132024 78 56 4.0 6.0 0.00 0.00 0.00 74 1012.9
20260906131546 77 53 3.0 6.0 0.00 0.00 0.00 76 1012.8
20260906131022 76 52 4.0 6.0 0.00 0.00 0.00 78 1012.7
20260906130524 75 49 3.0 5.0 0.00 0.00 0.00 81 1012.7
20260906130055 73 54 3.0 4.0 0.00 0.00 0.00 85 1012.6
20260906125524 72 226 1.0 2.0 0.00 0.00 0.00 86 1012.4
20260906125026 72 0 0.0 1.0 0.00 0.00 0.00 85 1012.2
20260906124551 71 0 0.0 2.0 0.00 0.00 0.00 85 1012.1
20260906124026 71 0 0.0 2.0 0.00 0.00 0.00 85 1012.2
20260906123524 71 0 0.0 0.0 0.00 0.00 0.00 85 1012.1
20260906123048 71 0 0.0 0.0 0.00 0.00 0.00 85 1012.0
20260906122526 71 0 0.0 0.0 0.00 0.00 0.00 84 1012.0
20260906122024 71 0 0.0 0.0 0.00 0.00 0.00 84 1011.9
20260906121547 71 0 0.0 0.0 0.00 0.00 0.00 84 1011.9
20260906121023 71 0 0.0 0.0 0.00 0.00 0.00 83 1011.9
20260906120525 71 0 0.0 0.0 0.00 0.00 0.00 83 1011.7
20260906120043 71 0 0.0 0.0 0.00 0.00 0.00 82 1011.7
20260906115526 71 0 0.0 0.0 0.00 0.00 0.00 83 1011.6
20260906115025 71 0 0.0 0.0 0.00 0.00 0.00 83 1011.5
20260906114548 71 0 0.0 0.0 0.00 0.00 0.00 82 1011.5
20260906114024 71 0 0.0 0.0 0.00 0.00 0.00 82 1011.4
20260906113523 71 0 0.0 0.0 0.00 0.00 0.00 82 1011.5
20260906113045 71 0 0.0 0.0 0.00 0.00 0.00 82 1011.4
20260906112528 71 0 0.0 0.0 0.00 0.00 0.00 82 1011.4
20260906112025 71 0 0.0 0.0 0.00 0.00 0.00 82 1011.3
20260906111546 71 0 0.0 3.0 0.00 0.00 0.00 81 1011.3
20260906111024 71 0 0.0 3.0 0.00 0.00 0.00 81 1011.4
20260906110524 71 62 0.0 3.0 0.00 0.00 0.00 81 1011.3
20260906110041 71 0 1.0 3.0 0.00 0.00 0.00 81 1011.2
20260906105524 71 62 2.0 3.0 0.00 0.00 0.00 81 1011.3
20260906105027 71 62 2.0 3.0 0.00 0.00 0.00 81 1011.2
20260906104541 71 62 2.0 3.0 0.00 0.00 0.00 81 1011.2
20260906104024 72 62 2.0 3.0 0.00 0.00 0.00 80 1011.2
20260906103526 72 62 0.0 3.0 0.00 0.00 0.00 80 1011.1
20260906103045 72 0 0.0 0.0 0.00 0.00 0.00 80 1011.2
20260906102525 72 0 0.0 0.0 0.00 0.00 0.00 80 1011.2
20260906102023 72 0 0.0 1.0 0.00 0.00 0.00 80 1011.2
20260906101546 72 0 0.0 3.0 0.00 0.00 0.00 80 1011.1
20260906101024 72 0 0.0 3.0 0.00 0.00 0.00 79 1011.1
20260906100524 72 62 1.0 3.0 0.00 0.00 0.00 79 1011.1
20260906100043 72 62 1.0 3.0 0.00 0.00 0.00 79 1011.1
20260906095521 72 62 1.0 2.0 0.00 0.00 0.00 79 1011.2
20260906095024 73 62 0.0 2.0 0.00 0.00 0.00 79 1011.2
20260906094546 73 0 1.0 2.0 0.00 0.00 0.00 78 1011.2
20260906094024 73 62 1.0 2.0 0.00 0.00 0.00 78 1011.3
20260906093525 73 0 0.0 0.0 0.00 0.00 0.00 79 1011.2
20260906093054 73 0 0.0 2.0 0.00 0.00 0.00 78 1011.3
20260906092523 73 0 0.0 2.0 0.00 0.00 0.00 77 1011.3
20260906092025 73 62 1.0 3.0 0.00 0.00 0.00 77 1011.3
20260906091543 73 62 1.0 3.0 0.00 0.00 0.00 77 1011.3
20260906091024 73 62 2.0 3.0 0.00 0.00 0.00 77 1011.1
20260906090525 73 62 1.0 3.0 0.00 0.00 0.00 77 1011.1
20260906090043 73 62 1.0 3.0 0.00 0.00 0.00 76 1011.1
20260906085524 73 62 2.0 3.0 0.00 0.00 0.00 77 1011.2
20260906085024 73 62 1.0 4.0 0.00 0.00 0.00 76 1011.1
20260906084554 73 62 1.0 4.0 0.00 0.00 0.00 76 1011.0
20260906084024 74 62 2.0 4.0 0.00 0.00 0.00 77 1011.0
20260906083524 74 0 0.0 0.0 0.00 0.00 0.00 77 1010.9
20260906083044 74 0 0.0 0.0 0.00 0.00 0.00 77 1011.1
20260906082523 74 0 0.0 0.0 0.00 0.00 0.00 76 1011.1
20260906082024 74 0 0.0 2.0 0.00 0.00 0.00 76 1011.0
20260906081551 74 0 0.0 2.0 0.00 0.00 0.00 76 1011.0
20260906081024 74 71 0.0 3.0 0.00 0.00 0.00 75 1011.1
20260906080525 74 71 2.0 3.0 0.00 0.00 0.00 75 1011.1
20260906080045 74 71 2.0 3.0 0.00 0.00 0.00 75 1011.1
20260906075524 74 71 1.0 2.0 0.00 0.00 0.00 75 1011.0
20260906075024 75 71 0.0 2.0 0.00 0.00 0.00 75 1011.0
20260906074547 75 0 0.0 3.0 0.00 0.00 0.00 74 1011.0
20260906074024 75 71 1.0 4.0 0.00 0.00 0.00 74 1011.0
20260906073524 75 71 2.0 4.0 0.00 0.00 0.00 75 1010.8
20260906073055 75 90 2.0 3.0 0.00 0.00 0.00 73 1010.7
20260906072527 75 90 1.0 3.0 0.00 0.00 0.00 72 1010.8
20260906072023 75 90 1.0 2.0 0.00 0.00 0.00 72 1010.8
20260906071544 76 90 0.0 2.0 0.00 0.00 0.00 71 1010.9
20260906071024 76 90 0.0 2.0 0.00 0.00 0.00 71 1010.8
20260906070525 76 0 0.0 1.0 0.00 0.00 0.00 71 1010.8
20260906070056 76 90 0.0 1.0 0.00 0.00 0.00 71 1010.8
20260906065524 76 0 0.0 1.0 0.00 0.00 0.00 71 1010.8
20260906065023 76 0 0.0 1.0 0.00 0.00 0.00 71 1010.8
20260906064544 77 0 0.0 2.0 0.00 0.00 0.00 69 1010.8
20260906064024 77 0 0.0 2.0 0.00 0.00 0.00 68 1010.7
20260906063527 77 90 1.0 2.0 0.00 0.00 0.00 68 1010.6
20260906063047 77 90 1.0 3.0 0.00 0.00 0.00 67 1010.7
20260906062523 78 90 1.0 3.0 0.00 0.00 0.00 67 1010.7
20260906062024 78 90 1.0 3.0 0.00 0.00 0.00 67 1010.8
20260906061559 78 90 2.0 3.0 0.00 0.00 0.00 66 1010.9
20260906061023 78 90 1.0 2.0 0.00 0.00 0.00 65 1010.9
20260906060526 79 90 0.0 2.0 0.00 0.00 0.00 65 1011.0
20260906060045 79 90 1.0 2.0 0.00 0.00 0.00 65 1011.0
20260906055523 79 90 0.0 2.0 0.00 0.00 0.00 65 1011.0
20260906055024 80 0 0.0 4.0 0.00 0.00 0.00 65 1011.1
20260906054552 80 90 0.0 5.0 0.00 0.00 0.00 64 1011.0
20260906054024 80 89 3.0 5.0 0.00 0.00 0.00 64 1010.9
20260906053525 80 83 4.0 5.0 0.00 0.00 0.00 64 1010.9
20260906053051 80 83 3.0 4.0 0.00 0.00 0.00 64 1010.9
20260906052524 80 82 3.0 4.0 0.00 0.00 0.00 64 1010.9
20260906052028 80 78 2.0 6.0 0.00 0.00 0.00 63 1011.0
20260906051545 80 88 2.0 6.0 0.00 0.00 0.00 63 1011.0
20260906051027 80 80 4.0 7.0 0.00 0.00 0.00 63 1010.9
20260906050523 80 84 4.0 7.0 0.00 0.00 0.00 63 1010.9
20260906050105 80 82 3.0 6.0 0.00 0.00 0.00 63 1011.0
20260906045526 80 84 2.0 4.0 0.00 0.00 0.00 63 1011.0
20260906045024 80 83 1.0 4.0 0.00 0.00 0.00 63 1011.1
20260906044542 80 82 1.0 4.0 0.00 0.00 0.00 63 1011.0
20260906044023 80 86 3.0 4.0 0.00 0.00 0.00 63 1011.0
20260906043524 80 87 2.0 6.0 0.00 0.00 0.00 63 1011.0
20260906043058 80 82 3.0 7.0 0.00 0.00 0.00 63 1011.0
20260906042525 80 81 3.0 7.0 0.00 0.00 0.00 63 1010.9
20260906042024 80 86 3.0 7.0 0.00 0.00 0.00 63 1011.0
20260906041544 80 90 3.0 6.0 0.00 0.00 0.00 64 1011.0
20260906041025 80 94 3.0 6.0 0.00 0.00 0.00 64 1011.0
20260906040524 81 84 2.0 4.0 0.00 0.00 0.00 63 1010.9
20260906040104 81 84 3.0 4.0 0.00 0.00 0.00 63 1011.0
20260906035524 81 94 3.0 4.0 0.00 0.00 0.00 63 1011.0
20260906035024 82 94 2.0 3.0 0.00 0.00 0.00 61 1010.9
20260906034542 82 94 2.0 3.0 0.00 0.00 0.00 61 1011.0
20260906034025 82 94 2.0 4.0 0.00 0.00 0.00 61 1010.9
20260906033524 83 94 2.0 4.0 0.00 0.00 0.00 60 1010.8
20260906033046 83 98 1.0 3.0 0.00 0.00 0.00 59 1010.8
20260906032523 83 85 1.0 4.0 0.00 0.00 0.00 59 1010.9
20260906032023 83 85 1.0 4.0 0.00 0.00 0.00 59 1011.0
20260906031542 83 82 3.0 4.0 0.00 0.00 0.00 59 1011.0
20260906031024 83 82 3.0 4.0 0.00 0.00 0.00 59 1010.9
20260906030525 84 79 2.0 5.0 0.00 0.00 0.00 59 1010.9
20260906030046 83 76 3.0 7.0 0.00 0.00 0.00 59 1010.8
20260906025524 83 82 3.0 7.0 0.00 0.00 0.00 59 1010.8
20260906025024 84 77 3.0 4.0 0.00 0.00 0.00 60 1010.7
20260906024544 84 92 2.0 4.0 0.00 0.00 0.00 60 1010.6
20260906024024 84 87 2.0 4.0 0.00 0.00 0.00 60 1010.5
20260906023524 83 113 2.0 3.0 0.00 0.00 0.00 60 1010.5
20260906023057 83 113 1.0 3.0 0.00 0.00 0.00 60 1010.4
20260906022525 83 113 1.0 2.0 0.00 0.00 0.00 59 1010.4
20260906022024 84 113 1.0 3.0 0.00 0.00 0.00 59 1010.3
20260906021547 84 113 1.0 3.0 0.00 0.00 0.00 59 1010.1
20260906021024 84 113 1.0 3.0 0.00 0.00 0.00 58 1010.1
20260906020524 85 113 1.0 3.0 0.00 0.00 0.00 57 1010.0
20260906020046 85 113 1.0 3.0 0.00 0.00 0.00 56 1009.9
20260906015523 85 113 1.0 3.0 0.00 0.00 0.00 56 1009.9
20260906015021 86 113 2.0 3.0 0.00 0.00 0.00 55 1009.9
20260906014555 86 113 1.0 3.0 0.00 0.00 0.00 54 1009.9
20260906014025 87 113 2.0 3.0 0.00 0.00 0.00 54 1009.7
20260906013524 87 109 2.0 3.0 0.00 0.00 0.00 53 1009.6
20260906013049 87 109 2.0 3.0 0.00 0.00 0.00 53 1009.5
20260906012527 88 109 1.0 2.0 0.00 0.00 0.00 52 1009.5
20260906012025 88 109 1.0 2.0 0.00 0.00 0.00 52 1009.5
20260906011553 89 109 1.0 2.0 0.00 0.00 0.00 51 1009.4
20260906011023 89 109 1.0 3.0 0.00 0.00 0.00 50 1009.3
20260906010528 89 109 1.0 4.0 0.00 0.00 0.00 49 1009.3
20260906010047 90 109 1.0 4.0 0.00 0.00 0.00 49 1009.2
20260906005528 90 109 2.0 6.0 0.00 0.00 0.00 48 1009.1
20260906005025 90 95 2.0 6.0 0.00 0.00 0.00 48 1009.1
20260906004544 91 98 3.0 6.0 0.00 0.00 0.00 47 1009.0
20260906004031 91 113 2.0 6.0 0.00 0.00 0.00 47 1009.0
20260906003530 92 130 2.0 6.0 0.00 0.00 0.00 46 1009.1
20260906003052 93 114 3.0 6.0 0.00 0.00 0.00 46 1009.2
20260906002524 93 116 3.0 7.0 0.00 0.00 0.00 45 1009.2
20260906002025 94 136 3.0 8.0 0.00 0.00 0.00 44 1009.1
20260906001545 95 127 4.0 8.0 0.00 0.00 0.00 43 1009.2
20260906001025 95 105 4.0 9.0 0.00 0.00 0.00 42 1009.2
20260906000525 96 118 4.0 9.0 0.00 0.00 0.00 40 1009.3
20260906000052 97 106 4.0 8.0 0.00 0.00 0.00 40 1009.3
20260905235527 98 106 6.0 8.0 0.00 0.00 0.00 39 1009.3
20260905235024 98 111 2.0 8.0 0.00 0.00 0.00 39 1009.3
20260905234553 98 121 2.0 11.0 0.00 0.00 0.00 38 1009.4
20260905234025 99 135 5.0 11.0 0.00 0.00 0.00 37 1009.4
20260905233524 99 143 4.0 14.0 0.00 0.00 0.00 37 1009.4
20260905233046 100 105 6.0 14.0 0.00 0.00 0.00 36 1009.3
20260905232525 100 129 9.0 14.0 0.00 0.00 0.00 36 1009.1
20260905232023 100 119 3.0 10.0 0.00 0.00 0.00 36 1009.2
20260905231546 100 110 7.0 10.0 0.00 0.00 0.00 36 1009.2
20260905231023 100 127 3.0 10.0 0.00 0.00 0.00 35 1009.2
20260905230524 101 126 6.0 13.0 0.00 0.00 0.00 34 1009.3
20260905230043 101 124 3.0 13.0 0.00 0.00 0.00 34 1009.2
20260905225526 102 122 9.0 13.0 0.00 0.00 0.00 34 1009.2
20260905225023 102 116 9.0 13.0 0.00 0.00 0.00 34 1009.3
20260905224559 101 123 2.0 12.0 0.00 0.00 0.00 34 1009.3
20260905224024 101 122 8.0 12.0 0.00 0.00 0.00 34 1009.3
20260905223529 102 132 5.0 15.0 0.00 0.00 0.00 34 1009.3
20260905223045 102 104 5.0 15.0 0.00 0.00 0.00 33 1009.3
20260905222524 102 127 9.0 15.0 0.00 0.00 0.00 33 1009.2
20260905222023 102 105 5.0 12.0 0.00 0.00 0.00 32 1009.2
20260905221544 102 157 6.0 17.0 0.00 0.00 0.00 32 1009.2
20260905221023 102 108 11.0 17.0 0.00 0.00 0.00 32 1009.2
20260905220525 102 129 8.0 15.0 0.00 0.00 0.00 33 1009.2
20260905220046 102 104 10.0 16.0 0.00 0.00 0.00 32 1009.2
20260905215526 102 138 6.0 16.0 0.00 0.00 0.00 33 1009.2
20260905215027 103 105 10.0 16.0 0.00 0.00 0.00 33 1009.3
20260905214546 102 121 5.0 16.0 0.00 0.00 0.00 34 1009.3
20260905214025 102 105 8.0 17.0 0.00 0.00 0.00 33 1009.3
20260905213524 103 92 8.0 17.0 0.00 0.00 0.00 33 1009.2
20260905213044 104 90 11.0 18.0 0.00 0.00 0.00 33 1009.3
20260905212524 103 128 7.0 18.0 0.00 0.00 0.00 33 1009.3
20260905212027 103 129 8.0 15.0 0.00 0.00 0.00 33 1009.4
20260905211546 103 140 7.0 12.0 0.00 0.00 0.00 31 1009.4
20260905211024 103 161 6.0 17.0 0.00 0.00 0.00 32 1009.6
20260905210523 103 101 8.0 17.0 0.00 0.00 0.00 33 1009.7
20260905210044 102 119 8.0 17.0 0.00 0.00 0.00 34 1009.7
20260905205524 102 94 3.0 13.0 0.00 0.00 0.00 34 1009.7
20260905205024 103 107 5.0 13.0 0.00 0.00 0.00 34 1009.9
20260905204545 102 119 6.0 15.0 0.00 0.00 0.00 35 1010.0
20260905204023 103 148 9.0 15.0 0.00 0.00 0.00 34 1010.1
20260905203526 103 156 8.0 14.0 0.00 0.00 0.00 33 1010.1
20260905203047 103 146 5.0 12.0 0.00 0.00 0.00 32 1010.2
20260905202526 103 94 4.0 14.0 0.00 0.00 0.00 32 1010.2
20260905202023 103 140 7.0 14.0 0.00 0.00 0.00 33 1010.4
20260905201547 103 136 8.0 17.0 0.00 0.00 0.00 34 1010.4
20260905201028 103 155 7.0 17.0 0.00 0.00 0.00 33 1010.4
20260905200524 102 133 8.0 15.0 0.00 0.00 0.00 34 1010.6
20260905200053 101 140 3.0 18.0 0.00 0.00 0.00 35 1010.7
20260905195531 102 157 5.0 18.0 0.00 0.00 0.00 35 1010.6
20260905195027 102 146 7.0 15.0 0.00 0.00 0.00 34 1010.6
20260905194545 102 111 6.0 15.0 0.00 0.00 0.00 35 1010.7
20260905194024 102 121 5.0 17.0 0.00 0.00 0.00 35 1010.9
20260905193525 102 124 7.0 18.0 0.00 0.00 0.00 35 1010.9
20260905193051 102 113 7.0 18.0 0.00 0.00 0.00 33 1011.0
20260905192525 102 96 8.0 14.0 0.00 0.00 0.00 36 1011.0
20260905192029 101 90 8.0 14.0 0.00 0.00 0.00 37 1011.1
20260905191546 100 87 6.0 14.0 0.00 0.00 0.00 38 1011.1
20260905191026 100 101 4.0 17.0 0.00 0.00 0.00 37 1011.1
20260905190524 100 88 10.0 17.0 0.00 0.00 0.00 37 1011.3
20260905190052 100 111 5.0 13.0 0.00 0.00 0.00 36 1011.3
20260905185523 100 26 2.0 13.0 0.00 0.00 0.00 37 1011.3
20260905185026 100 92 6.0 13.0 0.00 0.00 0.00 37 1011.4
20260905184600 101 76 3.0 16.0 0.00 0.00 0.00 35 1011.5
20260905184025 102 101 7.0 16.0 0.00 0.00 0.00 35 1011.6
20260905183527 100 105 9.0 16.0 0.00 0.00 0.00 37 1011.6
20260905183051 100 132 4.0 10.0 0.00 0.00 0.00 38 1011.7
20260905182524 100 85 5.0 15.0 0.00 0.00 0.00 36 1011.9
20260905182025 101 117 10.0 15.0 0.00 0.00 0.00 37 1011.9
20260905181545 101 87 9.0 14.0 0.00 0.00 0.00 38 1011.8
20260905181023 100 105 4.0 18.0 0.00 0.00 0.00 38 1011.9
20260905180524 100 98 8.0 18.0 0.00 0.00 0.00 38 1011.9
20260905180042 99 92 7.0 14.0 0.00 0.00 0.00 40 1011.9
20260905175528 99 0 3.0 14.0 0.00 0.00 0.00 40 1012.0
20260905175022 100 122 6.0 14.0 0.00 0.00 0.00 40 1012.1
20260905174547 99 92 6.0 13.0 0.00 0.00 0.00 40 1012.1
20260905174024 100 166 7.0 13.0 0.00 0.00 0.00 39 1012.1
20260905173524 100 151 8.0 13.0 0.00 0.00 0.00 39 1012.1
20260905173044 99 158 5.0 16.0 0.00 0.00 0.00 40 1012.3
20260905172524 100 103 10.0 16.0 0.00 0.00 0.00 39 1012.3
20260905172027 99 122 7.0 15.0 0.00 0.00 0.00 40 1012.3
20260905171544 99 106 10.0 15.0 0.00 0.00 0.00 41 1012.3
20260905171024 98 173 6.0 12.0 0.00 0.00 0.00 42 1012.3
20260905170521 99 141 6.0 16.0 0.00 0.00 0.00 42 1012.4
20260905170046 99 101 9.0 17.0 0.00 0.00 0.00 42 1012.5
20260905165524 98 122 8.0 17.0 0.00 0.00 0.00 43 1012.4
20260905165024 98 114 8.0 17.0 0.00 0.00 0.00 43 1012.5
20260905164545 98 109 9.0 15.0 0.00 0.00 0.00 43 1012.6
20260905164024 97 155 7.0 16.0 0.00 0.00 0.00 44 1012.6
20260905163526 97 156 6.0 16.0 0.00 0.00 0.00 44 1012.5
20260905163045 97 157 6.0 13.0 0.00 0.00 0.00 45 1012.5
20260905162527 97 150 7.0 12.0 0.00 0.00 0.00 45 1012.5
20260905162025 96 113 6.0 15.0 0.00 0.00 0.00 45 1012.5
20260905161542 97 167 6.0 15.0 0.00 0.00 0.00 45 1012.6
20260905161024 97 134 5.0 14.0 0.00 0.00 0.00 45 1012.6
20260905160525 97 135 4.0 14.0 0.00 0.00 0.00 45 1012.6
20260905160045 97 102 6.0 14.0 0.00 0.00 0.00 45 1012.4
20260905155526 96 136 8.0 14.0 0.00 0.00 0.00 46 1012.3
20260905155023 96 179 6.0 13.0 0.00 0.00 0.00 46 1012.4
20260905154544 96 121 8.0 15.0 0.00 0.00 0.00 46 1012.4